This is the latest recevied weather packets stored in our database for station/object IW2LSY-11. If no packets are shown the sender has not sent any weather packets the latest 10 day(s).
| Time | Temp. | Humidity | Pressure | Rain* | Wind** | Luminosity | Snow |
|---|---|---|---|---|---|---|---|
| 1778003410 | 15.56° C | 74% | 1012.9 hPa | - | - | 348 W/m² | - |
| 1778002811 | 16.11° C | 72% | 1012.9 hPa | - | - | 349 W/m² | - |
| 1778002211 | 16.11° C | 69% | 1012.9 hPa | - | - | 350 W/m² | - |
| 1778001611 | 16.11° C | 67% | 1012.8 hPa | - | - | 350 W/m² | - |
| 1778001011 | 16.11° C | 65% | 1012.8 hPa | - | - | 351 W/m² | - |
| 1778000411 | 16.11° C | 65% | 1012.8 hPa | - | - | 352 W/m² | - |
| 1777999812 | 16.67° C | 62% | 1012.8 hPa | - | - | 353 W/m² | - |
| 1777999213 | 16.67° C | 62% | 1012.9 hPa | - | - | 353 W/m² | - |
| 1777998613 | 16.67° C | 61% | 1013 hPa | - | - | 353 W/m² | - |
| 1777998013 | 16.67° C | 60% | 1013 hPa | - | - | 355 W/m² | - |
| 1777997413 | 16.67° C | 58% | 1012.9 hPa | - | - | 356 W/m² | - |
| 1777996813 | 16.67° C | 58% | 1013 hPa | - | - | 359 W/m² | - |
| 1777996213 | 17.22° C | 58% | 1013 hPa | - | - | 363 W/m² | - |
| 1777995614 | 17.22° C | 55% | 1013 hPa | - | - | 363 W/m² | - |
| 1777995014 | 17.22° C | 52% | 1013 hPa | - | - | 363 W/m² | - |
| 1777994413 | 17.22° C | 53% | 1013.1 hPa | - | - | 363 W/m² | - |
| 1777993814 | 17.78° C | 54% | 1013.1 hPa | - | - | 364 W/m² | - |
| 1777993214 | 17.22° C | 58% | 1013.3 hPa | - | - | 365 W/m² | - |
| 1777992614 | 16.67° C | 58% | 1013.4 hPa | - | - | 365 W/m² | - |
| 1777992014 | 16.67° C | 58% | 1013.5 hPa | - | - | 365 W/m² | - |
| 1777991415 | 17.78° C | 57% | 1013.4 hPa | - | - | 365 W/m² | - |
| 1777990815 | 17.22° C | 60% | 1013.3 hPa | - | - | 366 W/m² | - |
| 1777989615 | 16.67° C | 61% | 1013.4 hPa | - | - | 366 W/m² | - |
| 1777989004 | 16.67° C | 62% | 1013.5 hPa | - | - | 366 W/m² | - |
| 1777988405 | 16.11° C | 65% | 1013.6 hPa | - | - | 367 W/m² | - |
* Rain since midnight (hover to see other rain measurements)
** Current wind speed in m/s (hover to see current wind gust speed)